Location: Venise Bay
(45.0825°N, 73.1481°W)
Time: 09:15:02
(UTC-04:00)

Envisat - Visible Passes

Search period start: 23 September 2023 00:00
Search period end: 03 October 2023 00:00
Orbit: 763 x 764 km, 98.2° (Epoch: 22 September)

Date Brightness Start Highest point End Pass type
(mag) Time Alt. Az. Time Alt. Az. Time Alt. Az.
23 Sep 5.3 03:26:22 10° NE 03:29:53 19° E 03:32:47 12° SE visible
23 Sep 3.0 05:04:15 10° N 05:09:15 58° WNW 05:12:57 18° SW visible
24 Sep 3.3 04:27:00 10° NNE 04:32:05 66° ESE 04:35:13 23° S visible
24 Sep 4.5 06:07:09 10° NNW 06:10:32 18° WNW 06:13:55 10° WSW visible
25 Sep 4.6 03:50:13 10° NNE 03:54:42 31° E 03:57:28 19° SE visible
25 Sep 3.6 05:29:07 10° N 05:33:43 36° WNW 05:37:37 13° SW visible
26 Sep 5.6 03:14:25 10° NE 03:17:08 14° E 03:19:43 10° ESE visible
26 Sep 2.9 04:51:35 10° N 04:56:41 75° WNW 04:59:52 23° SSW visible
27 Sep 3.7 04:14:28 10° NNE 04:19:26 51° E 04:22:07 25° SSE visible
27 Sep 4.2 05:54:11 10° NNW 05:58:05 23° WNW 06:01:58 10° WSW visible
28 Sep 5.0 03:37:55 10° NE 03:42:00 24° E 03:44:22 17° SE visible
28 Sep 3.3 05:16:21 10° N 05:21:10 45° WNW 05:24:31 19° SW visible
29 Sep 5.8 03:03:11 10° ENE 03:04:21 11° E 03:05:30 10° E visible
29 Sep 2.9 04:38:58 10° NNE 04:44:05 85° ESE 04:46:46 29° SSW visible
30 Sep 4.2 04:02:00 10° NNE 04:06:47 39° E 04:09:01 26° SSE visible
30 Sep 3.9 05:41:18 10° N 05:45:36 28° WNW 05:49:10 13° WSW visible
01 Oct 5.3 03:25:44 10° NE 03:29:16 19° E 03:31:15 15° ESE visible
01 Oct 3.0 05:03:38 10° N 05:08:37 58° WNW 05:11:24 26° SW visible
02 Oct 3.2 04:26:23 10° NNE 04:31:28 67° ESE 04:33:38 34° S visible
02 Oct 4.5 06:06:32 10° NNW 06:09:55 18° WNW 06:13:17 10° WSW visible
